• In Deutschland
  • Länderverzeichnis
  • Für 7 Tage
  • Wassertemperatur
  • Satellitenkarten
  • Wetterkarte
  • Widgets
  • user-avatar
    Anmelden

    Stündliche Wetter Emden

    Heute, 17 Juli, Dienstag

    Zeit Temperatur Niederschläge Wind Luftdruck Luftfeuchtigkeit
    00:00 +17°C° 0 mm 3 m/S 760 mmHg 86%
    01:00 +16°C° 0 mm 2 m/S 760 mmHg 87%
    02:00 +16°C° 0 mm 2 m/S 760 mmHg 87%
    03:00 +16°C° 0 mm 2 m/S 759 mmHg 88%
    04:00 +17°C° 0 mm 2 m/S 760 mmHg 85%
    05:00 +18°C° 0 mm 2 m/S 760 mmHg 82%
    06:00 +19°C° 0 mm 2 m/S 760 mmHg 79%
    07:00 +21°C° 0 mm 2 m/S 760 mmHg 73%
    08:00 +24°C° 0 mm 2 m/S 760 mmHg 68%
    09:00 +26°C° 0 mm 2 m/S 760 mmHg 62%
    10:00 +26°C° 0 mm 2 m/S 760 mmHg 58%
    11:00 +27°C° 0 mm 2 m/S 760 mmHg 54%
    12:00 +28°C° 0 mm 2 m/S 760 mmHg 49%
    13:00 +28°C° 0,1 mm 2 m/S 760 mmHg 53%
    14:00 +27°C° 0,1 mm 3 m/S 760 mmHg 56%
    15:00 +26°C° 0,1 mm 4 m/S 760 mmHg 60%
    16:00 +25°C° 0,2 mm 4 m/S 760 mmHg 67%
    17:00 +22°C° 0,2 mm 5 m/S 760 mmHg 74%
    18:00 +20°C° 0,2 mm 5 m/S 760 mmHg 81%
    19:00 +19°C° 0 mm 5 m/S 760 mmHg 85%
    20:00 +17°C° 0 mm 4 m/S 761 mmHg 89%
    21:00 +15°C° 0 mm 4 m/S 761 mmHg 93%
    22:00 +14°C° 0 mm 4 m/S 761 mmHg 93%
    23:00 +14°C° 0 mm 4 m/S 761 mmHg 94%

    Morgen, 18 Juli, Mittwoch

    Zeit Temperatur Niederschläge Wind Luftdruck Luftfeuchtigkeit
    00:00 +13°C° 0 mm 4 m/S 762 mmHg 94%
    01:00 +13°C° 0 mm 3 m/S 762 mmHg 94%
    02:00 +13°C° 0 mm 3 m/S 762 mmHg 94%
    03:00 +12°C° 0 mm 3 m/S 762 mmHg 94%
    04:00 +13°C° 0 mm 3 m/S 762 mmHg 91%
    05:00 +16°C° 0 mm 3 m/S 762 mmHg 88%
    06:00 +17°C° 0 mm 3 m/S 762 mmHg 86%
    07:00 +18°C° 0 mm 3 m/S 762 mmHg 79%
    08:00 +19°C° 0 mm 3 m/S 763 mmHg 72%
    09:00 +21°C° 0 mm 2 m/S 763 mmHg 65%
    10:00 +21°C° 0 mm 3 m/S 763 mmHg 63%
    11:00 +22°C° 0 mm 3 m/S 763 mmHg 61%
    12:00 +24°C° 0 mm 3 m/S 763 mmHg 59%
    13:00 +22°C° 0 mm 3 m/S 763 mmHg 60%
    14:00 +23°C° 0 mm 2 m/S 763 mmHg 61%
    15:00 +23°C° 0 mm 2 m/S 763 mmHg 63%
    16:00 +22°C° 0 mm 3 m/S 763 mmHg 65%
    17:00 +21°C° 0 mm 3 m/S 764 mmHg 68%
    18:00 +21°C° 0 mm 3 m/S 764 mmHg 71%
    19:00 +19°C° 0 mm 2 m/S 764 mmHg 77%
    20:00 +17°C° 0 mm 2 m/S 764 mmHg 83%
    21:00 +16°C° 0 mm 2 m/S 764 mmHg 89%
    22:00 +15°C° 0 mm 2 m/S 764 mmHg 90%
    23:00 +15°C° 0 mm 2 m/S 764 mmHg 91%

    übermorgen, 19 Juli, Donnerstag

    Zeit Temperatur Niederschläge Wind Luftdruck Luftfeuchtigkeit
    00:00 +14°C° 0 mm 1 m/S 764 mmHg 91%
    01:00 +14°C° 0 mm 2 m/S 764 mmHg 92%
    02:00 +14°C° 0 mm 2 m/S 764 mmHg 92%
    03:00 +14°C° 0 mm 2 m/S 764 mmHg 92%
    04:00 +15°C° 0 mm 2 m/S 764 mmHg 89%
    05:00 +16°C° 0 mm 2 m/S 764 mmHg 86%
    06:00 +17°C° 0 mm 2 m/S 765 mmHg 83%
    07:00 +18°C° 0 mm 2 m/S 765 mmHg 77%
    08:00 +19°C° 0 mm 2 m/S 765 mmHg 70%
    09:00 +20°C° 0 mm 2 m/S 765 mmHg 64%
    10:00 +21°C° 0 mm 3 m/S 765 mmHg 62%
    11:00 +21°C° 0 mm 3 m/S 765 mmHg 60%
    12:00 +22°C° 0 mm 3 m/S 765 mmHg 57%
    13:00 +21°C° 0 mm 3 m/S 764 mmHg 58%
    14:00 +21°C° 0 mm 4 m/S 764 mmHg 59%
    15:00 +21°C° 0 mm 4 m/S 764 mmHg 60%
    16:00 +20°C° 0 mm 4 m/S 764 mmHg 64%
    17:00 +20°C° 0 mm 3 m/S 764 mmHg 69%
    18:00 +19°C° 0 mm 3 m/S 764 mmHg 73%
    19:00 +17°C° 0 mm 3 m/S 764 mmHg 79%
    20:00 +16°C° 0 mm 3 m/S 764 mmHg 85%
    21:00 +14°C° 0 mm 2 m/S 764 mmHg 92%
    22:00 +14°C° 0 mm 2 m/S 764 mmHg 92%
    23:00 +14°C° 0 mm 2 m/S 764 mmHg 93%

    20 Juli, Freitag

    Zeit Temperatur Niederschläge Wind Luftdruck Luftfeuchtigkeit
    00:00 +13°C° 0 mm 2 m/S 764 mmHg 93%
    01:00 +13°C° 0 mm 1 m/S 764 mmHg 93%
    02:00 +13°C° 0 mm 1 m/S 764 mmHg 93%
    03:00 +13°C° 0 mm 1 m/S 764 mmHg 94%
    04:00 +14°C° 0 mm 1 m/S 764 mmHg 91%
    05:00 +14°C° 0 mm 0 m/S 764 mmHg 89%
    06:00 +15°C° 0 mm 0 m/S 764 mmHg 87%
    07:00 +18°C° 0 mm 1 m/S 764 mmHg 80%
    08:00 +20°C° 0 mm 1 m/S 764 mmHg 73%
    09:00 +20°C° 0 mm 2 m/S 764 mmHg 66%
    10:00 +21°C° 0 mm 2 m/S 763 mmHg 63%
    11:00 +21°C° 0 mm 2 m/S 763 mmHg 59%
    12:00 +23°C° 0 mm 2 m/S 763 mmHg 56%
    13:00 +22°C° 0 mm 3 m/S 763 mmHg 56%
    14:00 +22°C° 0 mm 3 m/S 762 mmHg 57%
    15:00 +22°C° 0 mm 4 m/S 762 mmHg 57%
    16:00 +21°C° 0 mm 3 m/S 762 mmHg 62%
    17:00 +20°C° 0 mm 3 m/S 762 mmHg 66%
    18:00 +19°C° 0 mm 3 m/S 762 mmHg 70%
    19:00 +18°C° 0 mm 3 m/S 762 mmHg 75%
    20:00 +16°C° 0 mm 3 m/S 762 mmHg 80%
    21:00 +14°C° 0 mm 3 m/S 762 mmHg 85%
    22:00 +14°C° 0 mm 2 m/S 762 mmHg 86%
    23:00 +14°C° 0 mm 2 m/S 762 mmHg 87%

    21 Juli, Samstag

    Zeit Temperatur Niederschläge Wind Luftdruck Luftfeuchtigkeit
    00:00 +14°C° 0 mm 1 m/S 762 mmHg 88%
    01:00 +14°C° 0 mm 1 m/S 762 mmHg 88%
    02:00 +13°C° 0 mm 1 m/S 762 mmHg 89%
    03:00 +13°C° 0 mm 1 m/S 762 mmHg 89%
    04:00 +14°C° 0 mm 1 m/S 762 mmHg 85%
    05:00 +16°C° 0 mm 1 m/S 762 mmHg 81%
    06:00 +17°C° 0 mm 2 m/S 762 mmHg 77%
    07:00 +18°C° 0 mm 2 m/S 762 mmHg 72%
    08:00 +20°C° 0 mm 2 m/S 762 mmHg 67%
    09:00 +21°C° 0 mm 2 m/S 762 mmHg 62%
    10:00 +22°C° 0 mm 3 m/S 762 mmHg 61%
    11:00 +22°C° 0 mm 3 m/S 762 mmHg 60%
    12:00 +24°C° 0 mm 3 m/S 762 mmHg 59%
    13:00 +22°C° 0 mm 4 m/S 762 mmHg 61%
    14:00 +22°C° 0 mm 4 m/S 762 mmHg 62%
    15:00 +22°C° 0 mm 4 m/S 762 mmHg 64%
    16:00 +21°C° 0 mm 4 m/S 762 mmHg 68%
    17:00 +20°C° 0 mm 4 m/S 762 mmHg 71%
    18:00 +19°C° 0 mm 4 m/S 762 mmHg 75%
    19:00 +18°C° 0 mm 3 m/S 762 mmHg 79%
    20:00 +17°C° 0 mm 3 m/S 762 mmHg 83%
    21:00 +16°C° 0 mm 3 m/S 762 mmHg 87%
    22:00 +16°C° 0 mm 3 m/S 762 mmHg 87%
    23:00 +16°C° 0 mm 3 m/S 763 mmHg 87%

    22 Juli, Sonntag

    Zeit Temperatur Niederschläge Wind Luftdruck Luftfeuchtigkeit
    00:00 +16°C° 0 mm 3 m/S 763 mmHg 87%
    01:00 +14°C° 0 mm 3 m/S 763 mmHg 89%
    02:00 +14°C° 0 mm 3 m/S 762 mmHg 91%
    03:00 +13°C° 0 mm 3 m/S 762 mmHg 93%
    04:00 +14°C° 0 mm 3 m/S 762 mmHg 90%
    05:00 +16°C° 0 mm 3 m/S 762 mmHg 87%
    06:00 +17°C° 0 mm 3 m/S 762 mmHg 85%
    07:00 +18°C° 0 mm 3 m/S 762 mmHg 78%
    08:00 +19°C° 0 mm 3 m/S 762 mmHg 72%
    09:00 +21°C° 0 mm 3 m/S 762 mmHg 66%
    10:00 +21°C° 0 mm 3 m/S 762 mmHg 65%
    11:00 +22°C° 0 mm 4 m/S 762 mmHg 64%
    12:00 +23°C° 0 mm 4 m/S 762 mmHg 63%
    13:00 +23°C° 0 mm 4 m/S 762 mmHg 62%
    14:00 +23°C° 0 mm 4 m/S 762 mmHg 62%
    15:00 +23°C° 0 mm 5 m/S 762 mmHg 62%
    16:00 +22°C° 0 mm 4 m/S 762 mmHg 67%
    17:00 +21°C° 0 mm 4 m/S 762 mmHg 71%
    18:00 +20°C° 0 mm 4 m/S 762 mmHg 76%
    19:00 +19°C° 0 mm 3 m/S 762 mmHg 81%
    20:00 +17°C° 0 mm 3 m/S 762 mmHg 87%
    21:00 +16°C° 0 mm 3 m/S 763 mmHg 92%
    22:00 +16°C° 0 mm 3 m/S 763 mmHg 93%
    23:00 +15°C° 0 mm 2 m/S 763 mmHg 93%
    Mehr zeigen